Location: Unspecified
(43.4680°N, 87.1740°E)
Time: 04:53:51
(UTC+00:00)

Timation 2 Rocket - Pass Details

Date: 17 April 2021
Orbit: 907 x 1074 km, 70.0° (Epoch: 16 May)

Event Time Altitude Azimuth Distance (km) Brightness Sun altitude
Exits shadow 16:13:19 50° 229° (SW) 1,265 4.4 -29.6°
Maximum altitude 16:15:05 73° 298° (WNW) 1,047 4.1 -29.7°
Drops below altitude 10° 16:21:27 10° 23° (NNE) 2,725 6.7 -30.4°
Sets 16:23:58 0° 26° (NNE) 3,652 7.4 -30.6°
